Weather History for Dothan, AL

Change the Weather History Date:

Sunday, January 13, 2013

  Actual Average Record
Temperature  
Mean Temperature 71 °F 48 °F  
Max Temperature 79 °F 60 °F 79 °F (2013)
Min Temperature 63 °F 37 °F 15 °F (1962)
Degree Days  
Heating Degree Days 0 17  
Month to date heating degree days 217  
Since 1 July heating degree days 930  
Cooling Degree Days 6    
Growing Degree Days 20 (Base 50)    
Moisture  
Dew Point 63 °F    
Average Humidity 81    
Maximum Humidity 100    
Minimum Humidity 52    
Precipitation  
Precipitation 0.00 in 0.13 in 2.37 in (2005)
Month to date precipitation 0.10 1.79  
Year to date precipitation 0.10 1.79  
Sea Level Pressure  
Sea Level Pressure 30.09 in    
Wind  
Wind Speed 10 mph (South)    
Max Wind Speed 18 mph    
Max Gust Speed 24 mph    
Visibility 10 miles    
Events Rain    
T = Trace of Precipitation, MM = Missing Value Source: NWS Daily Summary

Daily Weather History Graph

Daily Weather History Graph

Search for Another Location

Airport:

Trip Planner

Search our weather history database for the weather conditions in past years. The results will help you decide how hot, cold, wet, or windy it might be!

Date:

Astronomy

Jan. 13, 2013 Rise Set
Actual Time 6:41 AM CST 5:00 PM CST
Civil Twilight 6:15 AM CST 5:26 PM CST
Nautical Twilight 5:45 AM CST 5:56 PM CST
Astronomical Twilight 5:16 AM CST 6:25 PM CST
Moon 7:50 AM CST (1/13) 7:25 PM CST (1/13)
Length of Visible Light 11h 11m
Length of Day
10h 18m
Waxing Crescent, 5% of the Moon is Illuminated
Jan 13
Waxing Crescent
Jan 18
First Quarter
Jan 26
Full
Feb 3
Last Quarter
Feb 10
New

Hourly Weather History & Observations

Time (CST) Temp. Dew Point Humidity Pressure Visibility Wind Dir Wind Speed Gust Speed Precip Events Conditions
12:53 AM 66.9 °F 64.0 °F 90% 30.07 in 10.0 mi South 9.2 mph - N/A   Overcast
1:53 AM 64.9 °F 63.0 °F 93% 30.08 in 10.0 mi SSW 5.8 mph - N/A   Overcast
2:53 AM 63.0 °F 62.1 °F 97% 30.06 in 9.0 mi SSE 6.9 mph - N/A   Mostly Cloudy
3:53 AM 64.9 °F 63.0 °F 93% 30.04 in 10.0 mi SSE 10.4 mph - N/A   Overcast
4:23 AM 64.4 °F 62.6 °F 94% 30.06 in 10.0 mi SSE 5.8 mph - N/A   Overcast
4:53 AM 64.9 °F 63.0 °F 93% 30.05 in 10.0 mi SSE 8.1 mph - N/A   Overcast
5:16 AM 64.4 °F 62.6 °F 94% 30.08 in 10.0 mi South 8.1 mph - N/A   Overcast
5:53 AM 64.9 °F 63.0 °F 93% 30.08 in 10.0 mi South 10.4 mph - N/A   Overcast
6:53 AM 64.9 °F 63.0 °F 93% 30.09 in 10.0 mi South 10.4 mph - N/A   Overcast
7:53 AM 66.0 °F 64.0 °F 93% 30.10 in 10.0 mi SSE 11.5 mph - N/A   Overcast
8:34 AM 66.2 °F 62.6 °F 88% 30.12 in 10.0 mi SSE 12.7 mph - N/A   Overcast
8:53 AM 68.0 °F 63.0 °F 84% 30.11 in 10.0 mi SSE 12.7 mph - N/A   Overcast
9:53 AM 70.0 °F 63.0 °F 78% 30.10 in 10.0 mi South 16.1 mph 21.9 mph N/A   Mostly Cloudy
10:20 AM 71.6 °F 62.6 °F 73% 30.11 in 10.0 mi South 11.5 mph 20.7 mph N/A   Scattered Clouds
10:53 AM 73.9 °F 63.0 °F 68% 30.08 in 10.0 mi South 13.8 mph 19.6 mph N/A   Scattered Clouds
11:35 AM 75.2 °F 62.6 °F 65% 30.08 in 10.0 mi South 9.2 mph - N/A   Mostly Cloudy
11:51 AM 75.2 °F 62.6 °F 65% 30.09 in 10.0 mi SSW 13.8 mph - N/A   Mostly Cloudy
11:53 AM 75.9 °F 63.0 °F 64% 30.07 in 10.0 mi South 12.7 mph 19.6 mph N/A   Mostly Cloudy
12:53 PM 77.0 °F 60.1 °F 56% 30.06 in 10.0 mi SSW 12.7 mph 19.6 mph N/A   Mostly Cloudy
1:53 PM 78.1 °F 59.0 °F 52% 30.04 in 10.0 mi SSW 18.4 mph 24.2 mph N/A   Scattered Clouds
2:53 PM 78.1 °F 59.0 °F 52% 30.05 in 10.0 mi South 15.0 mph 21.9 mph N/A   Mostly Cloudy
3:53 PM 75.0 °F 60.1 °F 60% 30.06 in 10.0 mi SSW 11.5 mph - N/A   Mostly Cloudy
4:53 PM 73.0 °F 61.0 °F 66% 30.07 in 10.0 mi South 10.4 mph - N/A   Scattered Clouds
5:53 PM 71.1 °F 62.1 °F 73% 30.09 in 10.0 mi SSW 4.6 mph - N/A   Overcast
6:53 PM 70.0 °F 62.1 °F 76% 30.09 in 10.0 mi South 6.9 mph - N/A   Overcast
7:05 PM 71.6 °F 62.6 °F 73% 30.10 in 10.0 mi South 8.1 mph - N/A   Overcast
7:12 PM 71.6 °F 62.6 °F 73% 30.10 in 10.0 mi South 6.9 mph - N/A   Overcast
7:53 PM 71.1 °F 62.1 °F 73% 30.09 in 10.0 mi SSE 10.4 mph - N/A   Overcast
8:06 PM 69.8 °F 62.6 °F 78% 30.10 in 10.0 mi SSE 11.5 mph - N/A   Overcast
8:53 PM 69.1 °F 63.0 °F 81% 30.09 in 10.0 mi South 10.4 mph - N/A   Overcast
9:12 PM 69.8 °F 64.4 °F 83% 30.11 in 10.0 mi South 12.7 mph - 0.00 in Rain Light Rain
9:53 PM 68.0 °F 64.0 °F 87% 30.10 in 10.0 mi South 10.4 mph - 0.00 in   Overcast
10:00 PM 68.0 °F 64.4 °F 88% 30.12 in 10.0 mi South 10.4 mph - N/A   Overcast
10:07 PM 68.0 °F 64.4 °F 88% 30.12 in 10.0 mi South 12.7 mph - N/A   Overcast
10:51 PM 68.0 °F 64.4 °F 88% 30.11 in 9.0 mi South 13.8 mph - 0.00 in   Overcast
10:53 PM 68.0 °F 64.9 °F 90% 30.10 in 5.0 mi SSE 11.5 mph - 0.00 in Rain Light Rain
11:12 PM 66.2 °F 64.4 °F 94% 30.11 in 10.0 mi South 11.5 mph - 0.00 in   Overcast
11:20 PM 66.2 °F 66.2 °F 100% 30.11 in 10.0 mi South 10.4 mph - 0.00 in   Overcast
11:34 PM 66.2 °F 64.4 °F 94% 30.11 in 10.0 mi South 8.1 mph - 0.00 in   Overcast
11:53 PM 66.9 °F 64.9 °F 93% 30.09 in 10.0 mi SSE 10.4 mph - 0.00 in   Overcast